Hinckley, MN

2:39 AM CST on November 14, 2019 (GMT -0600)
Hinckley

Weather History for K04W - October, 2019

Change the Weather History Date:

Saturday, October 19, 2019

  Actual Average (WUND) Record (WUND)
Temperature  
Mean Temperature 52 °F -  
Max Temperature 66 °F - - (-1)
Min Temperature 35 °F - - (-1)
Degree Days  
Heating Degree Days 14    
Growing Degree Days 2 (Base 50)    
Moisture  
Dew Point 40 °F    
Average Humidity 64    
Maximum Humidity 93    
Minimum Humidity 30    
Precipitation  
Precipitation 0.00 in - - ()
Sea Level Pressure  
Sea Level Pressure 29.63 in    
Wind  
Wind Speed 7 mph (SW)    
Max Wind Speed 14 mph    
Max Gust Speed 20 mph    
Visibility 10 miles    
Events      
Averages and records for this station are not official NWS values.
T = Trace of Precipitation, MM = Missing Value Source: NWS Daily Summary

Daily Weather History Graph

Daily Weather History Graph

Search for Another Location

Airport or City:

Astronomy

Oct. 19, 2019 Rise Set
Actual Time 7:33 AM CDT 6:18 PM CDT
Civil Twilight 7:03 AM CDT 6:49 PM CDT
Nautical Twilight 6:28 AM CDT 7:23 PM CDT
Astronomical Twilight 5:53 AM CDT 7:58 PM CDT
Moon 10:14 PM CDT (10/19) 1:20 PM CDT (10/19)
Length of Visible Light 11h 45m
Length of Day
10h 45m
Waning Gibbous, 69% of the Moon is Illuminated
Oct 19
Waning Gibbous
Oct 21
Last Quarter
Oct 27
New
Nov 4
First Quarter
Nov 12
Full

Hourly Weather History & Observations

Time (CDT) Temp. Windchill Dew Point Humidity Pressure Visibility Wind Dir Wind Speed Gust Speed Precip Events Conditions
12:15 AM 57.2 °F - 44.6 °F 63% 29.56 in 10.0 mi SSE 9.2 mph - N/A   Scattered Clouds
12:20 AM 55.4 °F - 44.6 °F 67% 29.56 in 10.0 mi SSE 8.1 mph - N/A   Scattered Clouds
12:37 AM 55.4 °F - 44.6 °F 67% 29.56 in 10.0 mi SSE 9.2 mph - N/A   Scattered Clouds
12:56 AM 55.4 °F - 44.6 °F 67% 29.56 in 10.0 mi SSE 11.5 mph - N/A   Scattered Clouds
1:15 AM 55.4 °F - 44.6 °F 67% 29.57 in 10.0 mi South 12.7 mph 17.3 mph N/A   Clear
1:16 AM 55.4 °F - 44.6 °F 67% 29.57 in 10.0 mi South 11.5 mph 17.3 mph N/A   Clear
1:35 AM 55.4 °F - 44.6 °F 67% 29.56 in 10.0 mi South 8.1 mph 17.3 mph N/A   Clear
1:58 AM 55.4 °F - 44.6 °F 67% 29.56 in 10.0 mi SSE 9.2 mph - N/A   Clear
2:16 AM 55.4 °F - 44.6 °F 67% 29.56 in 10.0 mi SSE 8.1 mph - N/A   Clear
2:35 AM 53.6 °F - 44.6 °F 72% 29.57 in 10.0 mi South 8.1 mph - N/A   Clear
2:55 AM 53.6 °F - 44.6 °F 72% 29.57 in 10.0 mi South 8.1 mph - N/A   Clear
2:56 AM 53.6 °F - 44.6 °F 72% 29.57 in 10.0 mi South 9.2 mph - N/A   Clear
3:15 AM 51.8 °F - 44.6 °F 76% 29.57 in 10.0 mi South 8.1 mph - N/A   Clear
3:37 AM 51.8 °F - 44.6 °F 76% 29.57 in 10.0 mi South 6.9 mph - N/A   Clear
3:56 AM 51.8 °F - 44.6 °F 76% 29.57 in 10.0 mi South 5.8 mph - N/A   Clear
4:15 AM 51.8 °F - 44.6 °F 76% 29.57 in 10.0 mi South 4.6 mph - N/A   Clear
4:16 AM 51.8 °F - 44.6 °F 76% 29.57 in 10.0 mi South 4.6 mph - N/A   Clear
4:35 AM 51.8 °F - 44.6 °F 76% 29.58 in 10.0 mi SSW 4.6 mph - N/A   Clear
4:36 AM 51.8 °F - 44.6 °F 76% 29.58 in 10.0 mi SSW 4.6 mph - N/A   Clear
4:59 AM 50.0 °F - 44.6 °F 82% 29.58 in 10.0 mi SW 3.5 mph - N/A   Clear
5:17 AM 50.0 °F - 44.6 °F 82% 29.58 in 10.0 mi Calm Calm - N/A   Clear
5:36 AM 50.0 °F - 44.6 °F 82% 29.59 in 10.0 mi SSW 3.5 mph - N/A   Clear
5:55 AM 50.0 °F - 44.6 °F 82% 29.59 in 10.0 mi South 4.6 mph - N/A   Clear
6:16 AM 50.0 °F - 44.6 °F 82% 29.60 in 10.0 mi SSW 4.6 mph - N/A   Clear
6:35 AM 46.4 °F 44.3 °F 44.6 °F 93% 29.61 in 10.0 mi SW 4.6 mph - N/A   Scattered Clouds
6:36 AM 46.4 °F 44.3 °F 44.6 °F 93% 29.61 in 10.0 mi SW 4.6 mph - N/A   Scattered Clouds
6:58 AM 46.4 °F 44.3 °F 44.6 °F 93% 29.61 in 10.0 mi WSW 4.6 mph - N/A   Scattered Clouds
7:17 AM 50.0 °F - 44.6 °F 82% 29.61 in 10.0 mi SW 4.6 mph - N/A   Mostly Cloudy
7:36 AM 50.0 °F - 44.6 °F 82% 29.61 in 10.0 mi WSW 4.6 mph - N/A   Scattered Clouds
7:58 AM 50.0 °F - 46.4 °F 87% 29.61 in 10.0 mi WSW 4.6 mph - N/A   Mostly Cloudy
8:19 AM 50.0 °F - 46.4 °F 87% 29.61 in 10.0 mi West 5.8 mph - N/A   Overcast
8:36 AM 50.0 °F - 46.4 °F 87% 29.61 in 10.0 mi WSW 5.8 mph - N/A   Overcast
8:56 AM 50.0 °F - 46.4 °F 87% 29.62 in 10.0 mi WSW 6.9 mph - N/A   Overcast
9:15 AM 50.0 °F - 46.4 °F 87% 29.64 in 10.0 mi SW 4.6 mph - N/A   Overcast
9:36 AM 50.0 °F - 46.4 °F 87% 29.65 in 10.0 mi SW 5.8 mph - N/A   Overcast
9:55 AM 50.0 °F - 46.4 °F 87% 29.65 in 10.0 mi SW 3.5 mph - N/A   Overcast
9:59 AM 50.0 °F - 46.4 °F 87% 29.65 in 10.0 mi SW 4.6 mph - N/A   Overcast
10:17 AM 51.8 °F - 46.4 °F 82% 29.65 in 10.0 mi SW 5.8 mph - N/A   Scattered Clouds
10:36 AM 51.8 °F - 46.4 °F 82% 29.65 in 10.0 mi SSW 4.6 mph - N/A   Clear
10:55 AM 51.8 °F - 46.4 °F 82% 29.65 in 10.0 mi SSW 6.9 mph - N/A   Clear
11:15 AM 51.8 °F - 44.6 °F 76% 29.65 in 10.0 mi SSW 6.9 mph - N/A   Clear
11:20 AM 51.8 °F - 44.6 °F 76% 29.65 in 10.0 mi SSW 5.8 mph - N/A   Clear
11:37 AM 53.6 °F - 44.6 °F 72% 29.65 in 10.0 mi SSW 5.8 mph - N/A   Clear
11:56 AM 53.6 °F - 46.4 °F 77% 29.65 in 10.0 mi South 6.9 mph - N/A   Clear
12:15 PM 55.4 °F - 46.4 °F 72% 29.65 in 10.0 mi SSW 5.8 mph - N/A   Clear
12:16 PM 55.4 °F - 46.4 °F 72% 29.65 in 10.0 mi SSW 6.9 mph - N/A   Clear
12:35 PM 59.0 °F - 46.4 °F 63% 29.65 in 10.0 mi South 5.8 mph - N/A   Clear
12:36 PM 59.0 °F - 46.4 °F 63% 29.65 in 10.0 mi South 6.9 mph - N/A   Clear
12:58 PM 59.0 °F - 44.6 °F 59% 29.64 in 10.0 mi South 6.9 mph - N/A   Clear
1:16 PM 60.8 °F - 44.6 °F 55% 29.64 in 10.0 mi SSW 6.9 mph - N/A   Clear
1:36 PM 60.8 °F - 44.6 °F 55% 29.63 in 10.0 mi SSW 5.8 mph - N/A   Clear
1:55 PM 62.6 °F - 44.6 °F 52% 29.62 in 10.0 mi SSW 6.9 mph - N/A   Clear
1:56 PM 62.6 °F - 44.6 °F 52% 29.62 in 10.0 mi SSW 6.9 mph - N/A   Clear
2:15 PM 64.4 °F - 44.6 °F 49% 29.61 in 10.0 mi South 8.1 mph - N/A   Clear
2:20 PM 64.4 °F - 42.8 °F 45% 29.61 in 10.0 mi South 8.1 mph - N/A   Scattered Clouds
2:37 PM 64.4 °F - 39.2 °F 40% 29.61 in 10.0 mi WSW 12.7 mph 18.4 mph N/A   Scattered Clouds
2:55 PM 66.2 °F - 35.6 °F 32% 29.61 in 10.0 mi West 10.4 mph - N/A   Scattered Clouds
2:56 PM 64.4 °F - 35.6 °F 34% 29.61 in 10.0 mi West 11.5 mph 16.1 mph N/A   Scattered Clouds
3:15 PM 66.2 °F - 33.8 °F 30% 29.61 in 10.0 mi West 10.4 mph 16.1 mph N/A   Clear
3:16 PM 64.4 °F - 33.8 °F 32% 29.61 in 10.0 mi West 11.5 mph 17.3 mph N/A   Clear
3:39 PM 64.4 °F - 32.0 °F 30% 29.61 in 10.0 mi West 13.8 mph - N/A   Clear
3:57 PM 64.4 °F - 32.0 °F 30% 29.61 in 10.0 mi West 10.4 mph 17.3 mph N/A   Clear
4:15 PM 64.4 °F - 32.0 °F 30% 29.61 in 10.0 mi West 12.7 mph 19.6 mph N/A   Clear
4:35 PM 64.4 °F - 32.0 °F 30% 29.61 in 10.0 mi West 10.4 mph - N/A   Clear
4:55 PM 64.4 °F - 32.0 °F 30% 29.62 in 10.0 mi WSW 13.8 mph 17.3 mph N/A   Clear
4:56 PM 64.4 °F - 32.0 °F 30% 29.62 in 10.0 mi WSW 12.7 mph 17.3 mph N/A   Clear
5:36 PM 60.8 °F - 32.0 °F 34% 29.63 in 10.0 mi WSW 10.4 mph - N/A   Clear
5:56 PM 59.0 °F - 33.8 °F 39% 29.64 in 10.0 mi WSW 6.9 mph - N/A   Clear
6:15 PM 55.4 °F - 33.8 °F 44% 29.64 in 10.0 mi WSW 5.8 mph - N/A   Clear
6:16 PM 55.4 °F - 33.8 °F 44% 29.64 in 10.0 mi WSW 5.8 mph - N/A   Clear
6:35 PM 53.6 °F - 33.8 °F 47% 29.64 in 10.0 mi WSW 5.8 mph - N/A   Clear
6:40 PM 51.8 °F - 33.8 °F 50% 29.65 in 10.0 mi WSW 5.8 mph - N/A   Clear
6:57 PM 51.8 °F - 33.8 °F 50% 29.66 in 10.0 mi WSW 8.1 mph - N/A   Clear
7:15 PM 51.8 °F - 33.8 °F 50% 29.66 in 10.0 mi WSW 5.8 mph - N/A   Clear
7:35 PM 51.8 °F - 32.0 °F 47% 29.67 in 10.0 mi West 4.6 mph - N/A   Clear
7:36 PM 51.8 °F - 32.0 °F 47% 29.67 in 10.0 mi West 4.6 mph - N/A   Clear
7:55 PM 53.6 °F - 32.0 °F 44% 29.67 in 10.0 mi West 3.5 mph - N/A   Clear
7:56 PM 53.6 °F - 32.0 °F 44% 29.67 in 10.0 mi West 4.6 mph - N/A   Clear
8:18 PM 50.0 °F - 32.0 °F 50% 29.68 in 10.0 mi West 4.6 mph - N/A   Clear
8:36 PM 50.0 °F - 32.0 °F 50% 29.68 in 10.0 mi West 4.6 mph - N/A   Clear
8:56 PM 50.0 °F - 32.0 °F 50% 29.69 in 10.0 mi West 5.8 mph - N/A   Clear
9:15 PM 50.0 °F - 32.0 °F 50% 29.69 in 10.0 mi West 4.6 mph - N/A   Clear
9:16 PM 50.0 °F - 32.0 °F 50% 29.69 in 10.0 mi West 4.6 mph - N/A   Clear
9:35 PM 50.0 °F - 32.0 °F 50% 29.70 in 10.0 mi West 4.6 mph - N/A   Clear
9:39 PM 50.0 °F - 32.0 °F 50% 29.70 in 10.0 mi West 4.6 mph - N/A   Clear
9:58 PM 48.2 °F - 32.0 °F 54% 29.71 in 10.0 mi Calm Calm - N/A   Clear
10:15 PM 44.6 °F - 32.0 °F 61% 29.71 in 10.0 mi Calm Calm - N/A   Clear
10:35 PM 41.0 °F - 33.8 °F 76% 29.71 in 10.0 mi Calm Calm - N/A   Clear
10:36 PM 41.0 °F - 33.8 °F 76% 29.71 in 10.0 mi Calm Calm - N/A   Clear
10:55 PM 39.2 °F - 33.8 °F 81% 29.71 in 10.0 mi Calm Calm - N/A   Clear
11:18 PM 37.4 °F - 33.8 °F 87% 29.71 in 10.0 mi Calm Calm - N/A   Clear
11:36 PM 37.4 °F - 33.8 °F 87% 29.71 in 10.0 mi Calm Calm - N/A   Clear
11:56 PM 35.6 °F - 33.8 °F 93% 29.72 in 10.0 mi Calm Calm - N/A   Clear